ATLAS 5 CENTAUR DEB, 44845

Orbit data source: Space-Track

ATLAS 5 CENTAUR DEB, 44845 is space debris in HEO originally from a launch on Wed, 17 Sep 2014 UTC launched from the Air Force Eastern Test Range (AFETR). Debris objects in space refer to the collection of defunct objects orbiting the Earth. Examples of debris include non-operational satellites, rocket bodies, and fragments generated from explosions, collisions, or faulty payload assembly.

Loading next visibility...
Identifier
44845, 2014-055CD
Orbit
HEO
Country
Flag of USUS
Related business
Flag of USUnited Launch Alliance/Lockheed Martin (US)
Manufacturer
Unknown
Mission
Spacecraft
Bus & Motor
Unknown
Mass
Unknown
Launch date (UTC)
2014-09-17 (11 years ago)
Launch vehicle
Unknown
Launch site
Air Force Eastern Test Range (AFETR)
Object type
Payload
Rocket body
Debris
Shape & HBR
Unknown shape, 1.1 m
Radar Cross Section
Small (<0.1 m²)

Expand to show TLE details & history
Last TLE update: 2 days ago

TLE from 2 days ago
0 ATLAS 5 CENTAUR DEB
1 44845U 14055CD  25292.98425519  .00000001  00000-0  00000-0 0  9994
2 44845  19.9829 151.5529 5055921 149.7448 252.8980  1.84920457 39980
Epoch: 2025-10-19T23:37Z
TLE epoch observation values (Epoch: 2025-10-19T23:37:19.648Z)
Latitude
-0.00001°
Longitude
128.59212°
Altitude
30,659.946 km
Speed
2.703 km/s
True Right ascension
10h 06m 28s
True Declination
0° 00' 00"
Sunlit
Object was in daylight at epoch
Visualization orbit readout
Latitude
Unknown
Longitude
Unknown
Altitude
Unknown
Speed
Unknown
Apparent Right ascension
Unknown
Apparent Declination
Unknown
Sunlit
N/A
Visualization observer readout
Local Sidereal Time
13:44:24
Azimuth
Unknown
Elevation
Unknown
Doppler factor
Unknown
Orbital elements
Apogee altitude
35,838.54 km
Perigee altitude
7,485.019 km
Semi-major axis
28,039.917 km
Eccentricity
0.50559
Inclination
19.9829°
RAAN
151.5529°
Arg. of periapsis
149.7448°
True anomaly
210.26994°
Mean anomaly
252.898°
Eccentric anomaly
230.53432°
Mean motion
0.46225 °/min
Orbital period
778.8 mins
BSTAR
0
Loading maneuver chart data...
Computing Atmospheric mass density...

Documentation

Showing up to 5 results
|